User: anonymous   Login
Location: Theydon Bois
(51.6750°N, 0.1050°E)
Time: 23:59:36
(UTC+01:00)
Language:

Terra - Orbit

View from above orbital plane
View from above orbital plane
View from above satellite
View from above satellite

Ground track
Ground track

The orbit data is extracted from the following two-line orbital elements,

1 25994U 99068A   17295.31226342 -.00001386  00000-0 -29759-3 0  9993
2 25994  98.2073   8.4811 0001288  64.4381 295.6952 14.57112419949181
Epoch (UTC): 22 October 2017 07:29:39
Eccentricity: 0.0001288
inclination: 98.2073°
perigee height: 701 km
apogee height: 703 km
right ascension of ascending node: 8.4811°
argument of perigee: 64.4381°
revolutions per day: 14.57112419
mean anomaly at epoch: 295.6952°
orbit number at epoch: 94918

The dashed part of the orbit path shows where the satellite is in the earth's shadow,  

DLR